Погода в Окуневском

Россия / Курганская область     55°44′22″N   64°11′03″E
темп.,
°C
ветер,
м/с
пор.,
м/с
влажн.,
%
обл.,
%
осадки,
мм/ч
давл.,
гПа
погр.,
м
9 декабря, чт
чт923:00−11ю41078100 0.0 1040235
02:00−10ю51280100 0.0 1039270
05:00−9ююз6148198 0.0 1038340
08:00−8ююз61376100 0.0 1037374
11:00−8ююз61276100 0.0 1037331
14:00−7ююз61274100 0.0 1037312
17:00−8ююз5137594 0.0 1037273
20:00−8ююз51473100 0.0 1036265
10 декабря, пт
пт1023:00−9ююз6147381 0.0 1035271
02:00−9ююз61668100 0.0 1034297
05:00−8ююз6166685 0.0 1033319
08:00−9ююз61666100 0.0 1032290
11:00−8ююз71767100 0.0 1031321
14:00−6ююз61667100 0.0 1029377
17:00−6ююз51275100 0.0 1028297
20:00−6ююз41080100 0.0 1028253
11 декабря, сб
сб1123:00−7юз3588100 0.0 1028108
02:00−8сз279493 0.0 1029123
05:00−9с4109469 0.0 1030246
08:00−11с3109342 0.0 1032234
11:00−11с3118581 0.0 1033285
14:00−9с38835 0.0 1033271
17:00−13сз24945 0.0 103455
20:00−12сз39905 0.0 1034139
12 декабря, вс
вс1223:00−12ссз310905 0.0 1035163
02:00−13ссз37935 0.0 1036118
05:00−13ссз389341 0.0 1037132
08:00−14сз229535 0.0 103826
11:00−11зсз248921 0.0 103991
14:00−9з37835 0.0 1038165
17:00−11зюз388630 0.0 1037126
20:00−11з310865 0.0 1037154
13 декабря, пн
пн1323:00−9з4108278 0.0 1036192
02:00−11з39865 0.0 1036162
05:00−10зсз5137987 0.0 1036276
08:00−10зсз412796 0.0 1035248
11:00−8зсз5137597 0.0 1034410
14:00−7зсз513759 0.0 1034457
17:00−9зсз410855 0.0 1034228
20:00−10зсз3108817 0.0 1034194